timestamp,surface_pressure_avg,surface_temp_avg,battery_voltage,lat,long
2019-05-24 00:00:00+00:00,268.7681,1.2,13.21,47.84626,-54.09684
2019-05-24 00:10:00+00:00,276.2864,1.28,13.05,47.84626,-54.09684
2019-05-24 00:20:00+00:00,284.4064,1.25,13.05,47.84626,-54.09684
2019-05-24 00:30:00+00:00,288.5264,1.29,13.05,47.84626,-54.09684
2019-05-24 00:40:00+00:00,294.3147,1.29,13.05,47.84626,-54.09684
2019-05-24 00:50:00+00:00,303.0314,1.3,13.05,47.84626,-54.09684
2019-05-24 01:00:00+00:00,309.483,1.3,12.97,47.84626,-54.09684
2019-05-24 01:10:00+00:00,311.6696,1.29,12.81,47.84626,-54.09684
2019-05-24 01:20:00+00:00,318.823,1.27,12.89,47.84626,-54.09684
2019-05-24 01:30:00+00:00,329.938,1.27,12.97,47.84626,-54.09684
2019-05-24 01:40:00+00:00,334.6896,1.24,12.97,47.84626,-54.09684
2019-05-24 01:50:00+00:00,333.608,1.28,12.97,47.84626,-54.09684
2019-05-24 02:00:00+00:00,338.9046,1.29,12.89,47.84626,-54.09684
2019-05-24 02:10:00+00:00,343.668,1.28,12.81,47.84626,-54.09684
2019-05-24 02:20:00+00:00,342.5796,1.3,12.89,47.84626,-54.09684
2019-05-24 02:30:00+00:00,342.6796,1.29,12.89,47.84626,-54.09684
2019-05-24 02:40:00+00:00,346.4529,1.21,12.89,47.84626,-54.09684
2019-05-24 02:50:00+00:00,347.5762,1.22,12.97,47.84626,-54.09684
2019-05-24 03:00:00+00:00,346.1813,1.29,12.81,47.84626,-54.09684
2019-05-24 03:10:00+00:00,349.2764,1.28,12.81,47.84626,-54.09684
2019-05-24 03:20:00+00:00,351.2379,1.2,12.89,47.84626,-54.09684
2019-05-24 03:30:00+00:00,349.5446,1.2,12.89,47.84626,-54.09684
2019-05-24 03:40:00+00:00,346.0696,1.2,12.89,47.84626,-54.09684
2019-05-24 03:50:00+00:00,345.4613,1.13,12.89,47.84626,-54.09684
2019-05-24 04:00:00+00:00,346.9013,1.1,12.81,47.84626,-54.09684
2019-05-24 04:10:00+00:00,342.7663,1.14,12.73,47.84626,-54.09684
2019-05-24 04:20:00+00:00,337.1297,1.15,12.81,47.84626,-54.09684
2019-05-24 04:30:00+00:00,334.5763,1.1,12.89,47.84626,-54.09684
2019-05-24 04:40:00+00:00,331.1097,1.04,12.89,47.84626,-54.09684
2019-05-24 04:50:00+00:00,325.3563,1.09,12.89,47.84626,-54.09684
2019-05-24 05:00:00+00:00,327.1013,1.08,12.81,47.84626,-54.09684
2019-05-24 05:10:00+00:00,327.5031,1.06,12.73,47.84626,-54.09684
2019-05-24 05:20:00+00:00,319.6597,1.01,12.81,47.84626,-54.09684
2019-05-24 05:30:00+00:00,311.1447,1.0,12.81,47.84626,-54.09684
2019-05-24 05:40:00+00:00,308.8729,0.99,12.89,47.84626,-54.09684
2019-05-24 05:50:00+00:00,302.2947,1.0,12.89,47.84626,-54.09684
2019-05-24 06:00:00+00:00,289.2263,1.0,12.81,47.84626,-54.09684
2019-05-24 06:10:00+00:00,281.1281,1.0,12.73,47.84626,-54.09684
2019-05-24 06:20:00+00:00,281.4647,1.0,12.81,47.84626,-54.09684
2019-05-24 06:30:00+00:00,277.5797,0.82,12.81,47.84626,-54.09684
2019-05-24 06:40:00+00:00,266.3598,1.0,12.81,47.84626,-54.09684
2019-05-24 06:50:00+00:00,258.2948,1.03,12.81,47.84626,-54.09684
2019-05-24 07:00:00+00:00,253.923,1.01,12.73,47.84626,-54.09684
2019-05-24 07:10:00+00:00,245.6498,1.04,12.73,47.84626,-54.09684
2019-05-24 07:20:00+00:00,235.0864,1.07,12.81,47.84626,-54.09684
2019-05-24 07:30:00+00:00,230.8531,1.05,12.81,47.84626,-54.09684
2019-05-24 07:40:00+00:00,226.0514,1.0,12.81,47.84626,-54.09684
2019-05-24 07:50:00+00:00,216.7231,1.0,12.81,47.84626,-54.09684
2019-05-24 08:00:00+00:00,212.1781,1.06,12.73,47.84626,-54.09684
2019-05-24 08:10:00+00:00,213.5314,1.07,12.65,47.84626,-54.09684
2019-05-24 08:20:00+00:00,211.6497,1.09,12.73,47.84626,-54.09684
2019-05-24 08:30:00+00:00,209.1047,1.1,12.73,47.84626,-54.09684
2019-05-24 08:40:00+00:00,209.8181,1.1,12.81,47.84626,-54.09684
2019-05-24 08:50:00+00:00,211.9831,1.1,12.81,47.84626,-54.09684
2019-05-24 09:00:00+00:00,208.8381,1.1,12.81,47.84626,-54.09684
2019-05-24 09:10:00+00:00,208.7381,1.1,12.73,47.84626,-54.09684
2019-05-24 09:20:00+00:00,214.1598,1.1,12.81,47.84626,-54.09684
2019-05-24 09:30:00+00:00,216.9348,1.1,12.81,47.84626,-54.09684
2019-05-24 09:40:00+00:00,216.4848,1.08,12.89,47.84626,-54.09684
2019-05-24 09:50:00+00:00,221.7264,1.0,13.13,47.84626,-54.09684
2019-05-24 10:00:00+00:00,227.8298,1.0,13.21,47.84626,-54.09684
2019-05-24 10:10:00+00:00,228.8081,1.0,13.37,47.84626,-54.09684
2019-05-24 10:20:00+00:00,229.5981,0.99,13.84,47.84626,-54.09684
2019-05-24 10:30:00+00:00,234.4081,0.9,14.24,47.84626,-54.09684
2019-05-24 10:40:00+00:00,236.7097,0.97,14.08,47.84626,-54.09684
2019-05-24 10:50:00+00:00,233.3281,1.0,14.08,47.84626,-54.09684
2019-05-24 11:00:00+00:00,232.3097,0.9,14.16,47.84626,-54.09684
2019-05-24 11:10:00+00:00,235.9964,0.9,14.32,47.84626,-54.09684
2019-05-24 11:20:00+00:00,238.5331,0.9,14.72,47.84626,-54.09684
2019-05-24 11:30:00+00:00,238.9114,0.96,14.8,47.84626,-54.09684
2019-05-24 11:40:00+00:00,242.5631,1.0,14.64,47.84626,-54.09684
2019-05-24 11:50:00+00:00,247.2848,1.1,14.56,47.84626,-54.09684
2019-05-24 12:00:00+00:00,251.3398,1.1,14.48,47.84626,-54.09684
2019-05-24 12:10:00+00:00,254.4847,1.1,15.35,47.84626,-54.09684
2019-05-24 12:20:00+00:00,257.2664,1.09,14.72,47.84626,-54.09684
2019-05-24 12:30:00+00:00,257.3797,1.06,15.27,47.84626,-54.09684
2019-05-24 12:40:00+00:00,260.8531,1.15,15.35,47.84626,-54.09684
2019-05-24 12:50:00+00:00,265.4798,1.17,15.11,47.84626,-54.09684
2019-05-24 13:00:00+00:00,270.568,1.25,14.8,47.84626,-54.09684
2019-05-24 13:10:00+00:00,273.2314,1.35,14.72,47.84626,-54.09684
2019-05-24 13:20:00+00:00,280.8447,1.3,14.88,47.84626,-54.09684
2019-05-24 13:30:00+00:00,289.7714,1.2,14.88,47.84626,-54.09684
2019-05-24 13:40:00+00:00,297.6497,1.17,14.88,47.84626,-54.09684
2019-05-24 13:50:00+00:00,300.7881,1.3,14.88,47.84626,-54.09684
2019-05-24 14:00:00+00:00,304.2664,1.0,14.72,47.84626,-54.09684
2019-05-24 14:10:00+00:00,306.7097,1.0,14.64,47.84626,-54.09684
2019-05-24 14:20:00+00:00,309.218,1.08,14.8,47.84626,-54.09684
2019-05-24 14:30:00+00:00,306.9346,1.07,14.72,47.84626,-54.09684
2019-05-24 14:40:00+00:00,305.9663,1.06,14.64,47.84626,-54.09684
2019-05-24 14:50:00+00:00,308.6497,1.02,14.56,47.84626,-54.09684
2019-05-24 15:00:00+00:00,314.398,1.03,14.48,47.84626,-54.09684
2019-05-24 15:10:00+00:00,315.273,1.0,14.4,47.84626,-54.09684
2019-05-24 15:20:00+00:00,312.9413,1.03,14.64,47.84626,-54.09684
2019-05-24 15:30:00+00:00,313.6413,1.0,14.64,47.84626,-54.09684
2019-05-24 15:40:00+00:00,315.7863,0.98,14.56,47.84626,-54.09684
2019-05-24 15:50:00+00:00,312.7497,0.93,14.64,47.84626,-54.09684
2019-05-24 16:00:00+00:00,307.988,1.01,14.56,47.84626,-54.09684
2019-05-24 16:10:00+00:00,307.2531,1.1,14.48,47.84626,-54.09684
2019-05-24 16:20:00+00:00,308.9813,1.1,14.56,47.84626,-54.09684
2019-05-24 16:30:00+00:00,304.413,1.08,14.48,47.84626,-54.09684
2019-05-24 16:40:00+00:00,302.2814,1.36,14.48,47.84626,-54.09684
2019-05-24 16:50:00+00:00,305.3997,1.4,14.48,47.84626,-54.09684
2019-05-24 17:00:00+00:00,307.488,1.38,14.4,47.84626,-54.09684
2019-05-24 17:10:00+00:00,306.2297,1.4,14.32,47.84626,-54.09684
2019-05-24 17:20:00+00:00,303.2047,1.4,14.4,47.84626,-54.09684
2019-05-24 17:30:00+00:00,301.9963,1.38,14.32,47.84626,-54.09684
2019-05-24 17:40:00+00:00,302.2079,1.3,14.48,47.84626,-54.09684
2019-05-24 17:50:00+00:00,300.0381,1.2,14.48,47.84626,-54.09684
2019-05-24 18:00:00+00:00,292.8314,1.2,14.32,47.84626,-54.09684
2019-05-24 18:10:00+00:00,286.3514,1.1,14.24,47.84626,-54.09684
2019-05-24 18:20:00+00:00,284.5897,0.9,14.24,47.84626,-54.09684
2019-05-24 18:30:00+00:00,277.7214,0.84,14.24,47.84626,-54.09684
2019-05-24 18:40:00+00:00,265.6681,0.9,14.24,47.84626,-54.09684
2019-05-24 18:50:00+00:00,260.0481,0.9,14.32,47.84626,-54.09684
2019-05-24 19:00:00+00:00,257.8264,0.9,14.32,47.84626,-54.09684
2019-05-24 19:10:00+00:00,249.8014,1.09,14.24,47.84626,-54.09684
2019-05-24 19:20:00+00:00,238.1264,1.23,14.24,47.84626,-54.09684
2019-05-24 19:30:00+00:00,232.3081,1.24,14.16,47.84626,-54.09684
2019-05-24 19:40:00+00:00,228.0731,1.2,14.16,47.84626,-54.09684
2019-05-24 19:50:00+00:00,221.2415,1.2,14.08,47.84626,-54.09684
2019-05-24 20:00:00+00:00,215.1131,1.2,14.0,47.84626,-54.09684
2019-05-24 20:10:00+00:00,213.8865,1.2,13.92,47.84626,-54.09684
2019-05-24 20:20:00+00:00,210.2481,1.2,14.0,47.84626,-54.09684
2019-05-24 20:30:00+00:00,203.0381,1.2,14.08,47.84626,-54.09684
2019-05-24 20:40:00+00:00,200.5032,1.2,14.08,47.84626,-54.09684
2019-05-24 20:50:00+00:00,200.4966,1.2,14.16,47.84626,-54.09684
2019-05-24 21:00:00+00:00,199.5282,1.2,14.08,47.84626,-54.09684
2019-05-24 21:10:00+00:00,202.7564,1.2,13.92,47.84626,-54.09684
2019-05-24 21:20:00+00:00,208.9831,1.2,13.92,47.84626,-54.09684
2019-05-24 21:30:00+00:00,212.7565,1.2,14.0,47.84626,-54.09684
2019-05-24 21:40:00+00:00,214.7198,1.22,14.0,47.84626,-54.09684
2019-05-24 21:50:00+00:00,221.1631,1.3,14.0,47.84626,-54.09684
2019-05-24 22:00:00+00:00,228.6031,1.32,13.92,47.84626,-54.09684
2019-05-24 22:10:00+00:00,231.5015,1.42,13.76,47.84626,-54.09684
2019-05-24 22:20:00+00:00,230.4831,1.5,13.76,47.84626,-54.09684
2019-05-24 22:30:00+00:00,230.7248,1.5,13.76,47.84626,-54.09684
2019-05-24 22:40:00+00:00,234.7831,1.55,13.68,47.84626,-54.09684
2019-05-24 22:50:00+00:00,238.1513,1.59,13.68,47.84626,-54.09684
2019-05-24 23:00:00+00:00,239.1147,1.6,13.6,47.84626,-54.09684
2019-05-24 23:10:00+00:00,240.6214,1.5,13.37,47.84626,-54.09684
2019-05-24 23:20:00+00:00,243.4514,1.3,13.37,47.84626,-54.09684
2019-05-24 23:30:00+00:00,246.9614,1.0,13.37,47.84626,-54.09684
2019-05-24 23:40:00+00:00,252.1313,0.98,13.29,47.84626,-54.09684
2019-05-24 23:50:00+00:00,254.4464,1.0,13.29,47.84626,-54.09684
